Daleville, AL

12:23 PM CST on January 17, 2017 (GMT -0600)
Cairns Army Air Field

Weather History for KOZR - October, 2013

Change the Weather History Date:

Tuesday, October 29, 2013

  Actual Average Record
Temperature  
Mean Temperature 67 °F -  
Max Temperature 81 °F 74 °F 86 °F (1998)
Min Temperature 53 °F 50 °F 31 °F (2008)
Cooling Degree Days 2    
Growing Degree Days 17 (Base 50)    
Moisture  
Dew Point 54 °F    
Average Humidity 71    
Maximum Humidity 94    
Minimum Humidity 38    
Precipitation  
Precipitation 0.00 in - - ()
Sea Level Pressure  
Sea Level Pressure 30.26 in    
Wind  
Wind Speed 3 mph (ENE)    
Max Wind Speed 7 mph    
Max Gust Speed -    
Visibility 10 miles    
Events      
Averages and records for this station are not official NWS values.
T = Trace of Precipitation, MM = Missing Value Source: NWS Daily Summary

Daily Weather History Graph

Daily Weather History Graph

Search for Another Location

Airport or City:

Trip Planner

Search our weather history database for the weather conditions in past years. The results will help you decide how hot, cold, wet, or windy it might be!

Date:

Astronomy

Oct. 29, 2013 Rise Set
Actual Time 6:56 AM CDT 5:56 PM CDT
Civil Twilight 6:31 AM CDT 6:21 PM CDT
Nautical Twilight 6:02 AM CDT 6:49 PM CDT
Astronomical Twilight 5:34 AM CDT 7:18 PM CDT
Moon 2:04 AM CDT (10/29) 2:53 PM CDT (10/29)
Length of Visible Light 11h 49m
Length of Day
11h 00m
Waning Crescent, 25% of the Moon is Illuminated
Oct 29
Waning Crescent
Nov 3
New
Nov 9
First Quarter
Nov 17
Full
Nov 25
Last Quarter

Hourly Weather History & Observations

Time (CDT) Temp. Heat Index Dew Point Humidity Pressure Visibility Wind Dir Wind Speed Gust Speed Precip Events Conditions
12:58 AM 55.6 °F - 53.1 °F 91% 30.25 in 10.0 mi Calm Calm - N/A   Clear
1:58 AM 55.4 °F - 52.5 °F 90% 30.25 in 10.0 mi North 2.3 mph - N/A   Clear
2:58 AM 54.0 °F - 51.8 °F 92% 30.22 in 10.0 mi NE 3.5 mph - N/A   Clear
3:58 AM 54.0 °F - 52.2 °F 94% 30.24 in 10.0 mi NE 2.3 mph - N/A   Clear
4:58 AM 53.2 °F - 51.6 °F 94% 30.25 in 10.0 mi North 4.6 mph - N/A   Clear
5:58 AM 53.1 °F - 50.4 °F 91% 30.26 in 10.0 mi NNE 1.2 mph - N/A   Clear
6:58 AM 53.2 °F - 51.1 °F 92% 30.28 in 10.0 mi NNE 2.3 mph - N/A   Clear
7:58 AM 55.4 °F - 53.1 °F 92% 30.30 in 10.0 mi NE 4.6 mph - N/A   Clear
8:58 AM 60.1 °F - 54.7 °F 82% 30.31 in 10.0 mi NE 3.5 mph - N/A   Clear
9:58 AM 67.8 °F - 57.7 °F 70% 30.31 in 10.0 mi SE 3.5 mph - N/A   Clear
10:58 AM 73.9 °F - 58.3 °F 58% 30.30 in 10.0 mi SE 6.9 mph - N/A   Clear
11:58 AM 76.8 °F - 55.8 °F 48% 30.29 in 10.0 mi ESE 5.8 mph - N/A   Clear
12:58 PM 78.8 °F - 54.5 °F 43% 30.25 in 10.0 mi East 5.8 mph - N/A   Clear
1:58 PM 79.9 °F - 54.5 °F 41% 30.22 in 10.0 mi Variable 2.3 mph - N/A   Clear
2:58 PM 81.0 °F 80.4 °F 53.1 °F 38% 30.22 in 10.0 mi East 4.6 mph - N/A   Clear
3:58 PM 80.2 °F 80.0 °F 53.1 °F 39% 30.22 in 10.0 mi Variable 1.2 mph - N/A   Clear
4:58 PM 79.0 °F - 53.2 °F 41% 30.22 in 10.0 mi ESE 3.5 mph - N/A   Clear
5:58 PM 74.5 °F - 54.9 °F 50% 30.23 in 10.0 mi SSE 2.3 mph - N/A   Clear
6:58 PM 68.7 °F - 54.1 °F 60% 30.24 in 10.0 mi SE 2.3 mph - N/A   Clear
7:58 PM 67.1 °F - 55.9 °F 67% 30.25 in 10.0 mi ENE 2.3 mph - N/A   Clear
8:58 PM 61.5 °F - 56.3 °F 83% 30.27 in 10.0 mi Calm Calm - N/A   Clear
9:58 PM 63.7 °F - 56.7 °F 78% 30.27 in 10.0 mi NNE 1.2 mph - N/A   Clear
10:58 PM 59.5 °F - 57.2 °F 92% 30.25 in 10.0 mi NNE 2.3 mph - N/A   Clear
11:58 PM 59.5 °F - 56.5 °F 90% 30.25 in 10.0 mi NE 3.5 mph - N/A   Clear